This demonstration page uses our WeatherBlox Daily Observations layout. Learn more.

Left ArrowRight Arrow

Hourly Observations for August 4, 2020

Temp ( °F °C ) Dew Point ( °F °C ) Humidity (%) Winds ( mph kmh ) Pressure ( in mb ) Visibility ( mi km ) Precip ( " mm )
12:54 am 00:54 Clear 56 13.3 52 11.1 87 87 N 5 7 30.17 1022 10 16.0934 0 0
1:54 am 01:54 Clear 55 12.8 52 11.1 90 90 Calm 30.16 1021 10 16.0934 0 0
2:54 am 02:54 Clear 55 12.8 51 10.6 87 87 Calm 30.14 1021 10 16.0934 0 0
3:54 am 03:54 Clear 52 11.1 49 9.4 89 89 Calm 30.13 1020 10 16.0934 0 0
4:54 am 04:54 Clear 50 10 47 8.3 89 89 Calm 30.13 1020 10 16.0934 0 0
5:54 am 05:54 Clear 50 10 47 8.3 89 89 N 3 6 30.15 1021 10 16.0934 0 0
6:54 am 06:54 Sunny 50 10 48 8.9 93 93 N 5 7 30.16 1021 9 14.48406 0 0
7:54 am 07:54 Sunny 56 13.3 51 10.6 84 84 N 3 6 30.16 1021 9 14.48406 0 0
8:54 am 08:54 Sunny 62 16.7 53 11.7 73 73 Calm 30.16 1022 9 14.48406 0 0
9:54 am 09:54 Partly Cloudy 66 18.9 54 12.2 65 65 SW 3 6 30.16 1021 9 14.48406 0 0
10:54 am 10:54 Sunny 71 21.7 53 11.7 53 53 S 6 9 30.16 1021 9 14.48406 0 0
11:54 am 11:54 Sunny 74 23.3 50 10 43 43 S 8 13 30.14 1021 10 16.0934 0 0
12:54 pm 12:54 Sunny 73 22.8 51 10.6 46 46 SW 13 20 30.15 1021 10 16.0934 0 0
1:54 pm 13:54 Sunny 73 22.8 51 10.6 46 46 S 10 17 30.14 1021 10 16.0934 0 0
2:54 pm 14:54 Sunny 74 23.3 53 11.7 48 48 SSE 12 19 30.12 1020 10 16.0934 0 0
3:54 pm 15:54 Mostly Cloudy 75 23.9 53 11.7 46 46 S 6 9 30.11 1020 10 16.0934 0 0
4:54 pm 16:54 Mostly Cloudy 75 23.9 54 12.2 48 48 SSE 7 11 30.11 1020 9 14.48406 0 0
5:54 pm 17:54 Sunny 75 23.9 54 12.2 48 48 SW 9 15 30.1 1019 10 16.0934 0 0
6:54 pm 18:54 Sunny 72 22.2 54 12.2 53 53 SSW 8 13 30.06 1018 9 14.48406 0 0
7:54 pm 19:54 Sunny 71 21.7 55 12.8 57 57 S 12 19 30.05 1018 10 16.0934 0 0
8:54 pm 20:54 Clear 68 20 54 12.2 61 61 S 6 9 30.07 1018 10 16.0934 0 0
9:54 pm 21:54 Clear 64 17.8 54 12.2 70 70 S 5 7 30.09 1019 10 16.0934 0 0
10:54 pm 22:54 Partly Cloudy 61 16.1 55 12.8 81 81 S 7 11 30.08 1019 10 16.0934 0 0
11:54 pm 23:54 Cloudy 63 17.2 56 13.3 78 78 S 7 11 30.06 1018 10 16.0934 0 0

Powered by AerisWeather